Torna al catalogo

COSMOS 839 DEB

AttivoLEO
NORAD 13501·DEBRIS·🇷🇺 Russia

Lanciato Jul 8, 1976 da Plesetsk Cosmodrome

Loading…

Prossimi Passaggi (prossime 24 ore)

TLE

AggiornatoSource: Space-Track

Epoca: Sep 13, 2026, 15:00 UTC

1 13501U 76067BB  26256.62540257 -.00000418  00000-0 -14079-2 0  9996
2 13501  66.0347 357.2118 0614406  97.6669  13.8546 12.40282276 51220

Traccia COSMOS 839 DEB in tempo reale con AllMySat

Download on the App Store